Location: Newark
(23.3970°S, 47.6010°W)
Time: 13:42:28
(UTC+00:00)

deb Explorer IX - Pass Details

Date: 24 February 2020
Orbit: 547 x 1100 km, 38.8° (Epoch: 04 April)

Event Time Altitude Azimuth Distance (km) Brightness Sun altitude
Rises 02:23:07 0° 252° (WSW) 3,734 ? -53.7°
Enters shadow 02:23:48 - 249° (WSW) 3,537 ? -53.8°
Reaches altitude 10° 02:26:20 10° 237° (WSW) 2,855 - -54.1°
Maximum altitude 02:31:51 24° 186° (S) 2,099 - -54.6°
Drops below altitude 10° 02:37:33 10° 135° (SE) 2,967 - -55.0°
Sets 02:40:59 0° 121° (ESE) 3,913 - -55.3°
